User: anonymous   Login
Location: Unspecified
(0.0000°N, 0.0000°E)
Time: 22:39:58
(UTC+02:00)
Language:

Cosmos 1933 - Orbit

View from above orbital plane
View from above orbital plane
View from above satellite
View from above satellite

Ground track
Ground track

The orbit data is extracted from the following two-line orbital elements,

1 18958U 88020A   18115.63998080 -.00000060  00000-0 -65211-5 0  9996
2 18958  82.5292 162.3196 0010058 304.1637  55.8635 15.03428381638472
Epoch (UTC): 25 April 2018 15:21:34
Eccentricity: 0.0010058
inclination: 82.5292°
perigee height: 549 km
apogee height: 563 km
right ascension of ascending node: 162.3196°
argument of perigee: 304.1637°
revolutions per day: 15.03428381
mean anomaly at epoch: 55.8635°
orbit number at epoch: 63847

The dashed part of the orbit path shows where the satellite is in the earth's shadow,  

DLR